Date,TemperatureHighF,TemperatureAvgF,TemperatureLowF,DewpointHighF,DewpointAvgF,DewpointLowF,HumidityHigh,HumidityAvg,HumidityLow,PressureMaxIn,PressureMinIn,WindSpeedMaxMPH,WindSpeedAvgMPH,GustSpeedMaxMPH,PrecipitationSumIn
2013-1-1,31.8,26.8,20.5,30.0,22.7,14.7,93,84,78,30.14,30.02,8,4,13,0.00
2013-1-2,24.1,18.4,12.2,17.1,13.7,9.2,91,82,71,30.27,30.12,8,3,13,0.00
2013-1-3,29.8,21.8,11.8,24.3,16.9,8.7,89,81,65,30.25,30.14,17,6,23,0.00
2013-1-4,28.7,27.6,24.7,24.0,20.1,18.5,85,73,66,30.26,30.17,19,11,25,0.00
2013-1-5,35.7,29.8,23.1,28.0,23.3,18.5,84,77,66,30.37,30.13,10,5,15,0.00
2013-1-6,37.1,34.5,30.7,32.3,29.7,27.3,91,82,76,30.27,29.97,13,6,18,0.01
2013-1-7,37.0,32.0,29.7,28.1,26.2,24.2,89,80,64,30.46,30.24,12,5,20,0.00
2013-1-8,43.9,34.5,28.0,29.7,25.9,23.5,83,72,48,30.32,30.24,8,4,14,0.00
2013-1-9,47.6,40.8,34.4,38.3,32.6,28.4,84,73,61,30.49,30.15,16,7,26,0.02
2013-1-10,44.0,35.8,26.3,31.9,28.3,24.6,93,75,54,30.61,30.21,11,3,18,0.00
2013-1-11,57.9,49.8,42.5,52.5,43.4,26.7,95,80,51,30.21,29.83,17,6,29,0.46
2013-1-12,61.9,54.8,49.1,57.2,51.4,46.8,96,88,76,30.00,29.83,12,4,20,0.00
2013-1-13,64.8,51.8,36.8,59.5,49.1,35.2,96,91,75,30.03,29.69,24,5,28,0.29
2013-1-14,36.8,30.0,27.4,35.2,25.0,20.6,94,82,72,30.46,30.03,14,5,22,0.05
2013-1-15,32.9,28.8,26.6,25.0,22.3,20.1,81,77,66,30.45,30.14,9,3,12,0.00
2013-1-16,35.4,32.0,29.2,26.5,24.2,22.1,82,73,63,30.15,29.90,14,4,20,0.00
2013-1-17,33.9,33.0,25.2,29.0,27.0,17.1,82,78,66,30.29,30.02,17,5,26,0.00
2013-1-18,35.4,28.1,21.4,21.7,16.4,8.9,83,62,49,30.51,30.11,18,7,29,0.00
2013-1-19,51.9,44.8,35.5,30.7,26.4,21.8,58,48,43,30.12,29.69,23,10,35,0.00
2013-1-20,47.7,29.4,20.8,34.3,17.2,10.4,72,60,52,30.18,29.67,26,11,39,0.00
2013-1-21,22.5,18.3,10.7,14.4,8.8,0.9,79,66,52,30.16,29.98,19,8,26,0.00
2013-1-22,11.3,8.9,7.1,4.6,1.8,-1.7,85,73,58,30.34,30.13,17,7,26,0.00
2013-1-23,16.7,12.1,7.3,11.8,5.4,-1.0,87,74,63,30.35,30.14,11,5,18,0.00
2013-1-24,22.6,16.5,11.6,13.6,9.0,5.0,91,73,50,30.61,30.13,16,4,25,0.00
2013-1-25,21.2,17.2,13.3,16.1,11.5,6.6,89,78,67,30.56,30.08,11,2,12,0.09
2013-1-26,26.0,22.6,18.8,21.1,18.0,14.2,92,82,73,30.50,30.12,12,4,16,0.00
2013-1-27,32.0,24.5,12.3,25.3,16.8,8.9,88,73,57,30.57,30.28,12,3,17,0.06
2013-1-28,48.8,41.7,30.7,47.5,40.0,24.0,97,93,76,30.29,29.95,15,6,24,0.17
2013-1-29,60.9,52.5,39.5,56.2,50.2,38.5,98,92,78,30.07,29.61,16,5,29,0.18
2013-1-30,63.2,56.2,36.1,56.9,51.2,33.2,96,84,73,29.62,29.15,28,9,40,0.57
2013-1-31,36.1,25.6,17.9,33.2,19.2,7.9,91,77,62,29.92,29.28,24,11,36,0.01
2013-2-1,18.2,15.4,12.2,13.7,9.5,6.7,90,78,66,30.36,29.91,15,8,28,0.00
2013-2-2,24.4,18.9,13.8,21.1,14.7,6.6,92,84,72,30.34,30.02,11,4,17,0.08
2013-2-3,22.7,19.4,16.2,20.5,15.5,12.5,93,85,72,30.08,29.93,14,5,21,0.01
2013-2-4,27.8,21.8,17.0,22.7,18.4,13.0,92,86,80,30.10,29.92,7,2,12,0.03
2013-2-5,30.7,25.9,22.4,24.6,21.4,19.1,93,83,66,29.98,29.89,10,2,16,0.03
2013-2-6,30.2,25.6,20.2,26.4,18.4,14.1,92,75,54,30.38,29.98,13,3,20,0.00
2013-2-7,46.4,34.6,20.2,30.7,24.2,15.5,82,67,50,30.35,29.87,12,4,18,0.00
2013-2-8,41.8,32.1,25.7,37.7,28.5,22.1,95,87,71,30.30,29.75,20,10,29,0.18
2013-2-9,32.6,25.8,21.0,24.2,21.1,17.7,91,82,64,30.48,30.30,13,4,23,0.00
2013-2-10,50.9,37.7,19.4,36.2,22.5,16.6,90,57,35,30.36,29.83,17,5,29,0.00
2013-2-11,51.2,41.9,33.6,44.7,34.1,24.6,90,74,63,29.94,29.67,27,11,41,0.00
2013-2-12,37.0,32.0,26.0,26.9,24.7,23.2,90,75,64,30.12,29.94,14,5,21,0.00
2013-2-13,34.9,29.3,25.8,26.2,24.4,22.6,90,82,67,29.96,29.80,8,2,10,0.00
2013-2-14,40.1,34.4,26.2,35.3,30.0,23.4,90,84,74,29.92,29.81,18,6,28,0.01
2013-2-15,37.0,31.0,27.2,29.5,24.4,18.4,89,76,67,30.14,29.93,13,5,22,0.00
2013-2-16,27.7,24.0,19.6,22.4,19.0,11.3,92,81,52,30.13,30.01,12,3,17,0.11
2013-2-17,23.1,18.8,12.1,17.1,12.3,7.2,90,76,58,30.30,30.03,15,6,18,0.03
2013-2-18,46.7,29.4,12.2,32.4,18.2,6.4,80,64,48,30.32,29.76,16,7,26,0.00
2013-2-19,47.3,31.6,17.8,39.4,26.3,10.1,93,81,55,30.01,29.59,24,11,38,0.13
2013-2-20,22.1,19.6,16.7,16.8,13.1,10.3,91,76,65,30.28,30.00,18,8,25,0.03
2013-2-21,22.7,20.3,17.9,18.4,15.0,12.4,91,80,68,30.43,30.26,15,4,17,0.00
2013-2-22,38.7,30.6,19.6,36.1,26.4,14.4,92,84,74,30.36,29.97,13,5,22,0.04
2013-2-23,36.3,33.5,29.8,31.0,27.3,23.4,86,78,66,30.01,29.92,12,4,17,0.00
2013-2-24,34.7,30.6,27.1,25.9,23.3,20.0,82,74,65,30.19,29.92,11,5,16,0.00
2013-2-25,42.3,31.3,21.8,29.6,24.5,19.8,94,77,55,30.27,30.10,8,2,12,0.00
2013-2-26,39.0,34.9,27.8,36.3,29.3,22.5,92,80,61,30.14,29.52,16,7,26,0.53
2013-2-27,42.9,38.3,33.2,39.1,36.1,31.4,96,92,81,29.66,29.51,14,6,23,0.16
2013-2-28,35.3,33.0,30.6,33.4,30.7,28.0,95,91,87,29.93,29.61,17,7,23,0.02
2013-3-1,30.6,28.1,26.0,28.2,25.1,22.4,92,88,81,30.08,29.93,13,7,21,0.05
2013-3-2,30.6,26.2,23.9,24.9,23.0,20.3,92,88,79,30.06,30.03,13,5,17,0.05
2013-3-3,27.0,24.3,22.4,23.0,20.1,16.7,92,84,72,30.10,30.03,13,5,18,0.01
2013-3-4,35.3,25.2,16.7,24.9,19.4,13.8,93,79,57,30.19,30.09,9,2,12,0.00
2013-3-5,39.9,29.2,18.5,30.5,23.5,16.1,91,80,53,30.17,29.73,9,3,13,0.00
2013-3-6,45.0,35.4,30.6,34.6,29.4,26.5,92,79,63,30.22,29.73,12,4,17,0.00
2013-3-7,38.7,33.5,29.3,33.7,30.7,26.4,94,89,80,30.41,30.20,9,3,12,0.00
2013-3-8,36.9,29.8,23.8,31.2,26.8,22.3,95,89,77,30.52,30.41,7,2,12,0.00
2013-3-9,54.8,39.2,23.4,34.5,28.8,21.7,94,69,41,30.48,30.12,10,3,16,0.01
2013-3-10,68.9,58.8,49.7,39.0,34.4,29.3,57,40,31,30.12,29.85,16,6,22,0.00
2013-3-11,63.6,52.7,41.9,49.8,43.3,34.5,94,73,34,29.87,29.54,18,7,29,0.83
2013-3-12,41.6,36.3,33.1,35.9,30.6,27.0,87,80,74,30.00,29.76,16,7,24,0.00
2013-3-13,33.1,31.0,28.5,28.2,23.3,16.7,87,73,53,30.21,29.93,19,8,26,0.00
2013-3-14,38.7,31.2,24.8,23.8,20.5,15.5,80,65,50,30.28,30.14,15,6,21,0.00
2013-3-15,44.3,35.9,31.1,35.1,29.5,22.8,95,78,66,30.15,29.89,14,5,17,0.04
2013-3-16,35.2,32.4,29.7,33.9,30.4,25.5,96,92,84,30.06,29.71,10,4,15,0.22
2013-3-17,34.2,30.2,27.0,27.9,23.6,19.2,91,77,64,30.27,30.06,11,4,16,0.00
2013-3-18,45.6,35.4,26.7,44.5,31.3,18.7,96,85,70,30.22,29.60,16,7,25,0.13
2013-3-19,40.7,31.5,27.0,38.6,23.3,18.0,93,72,60,30.00,29.72,18,10,30,0.01
2013-3-20,31.8,27.7,22.9,22.9,19.0,13.1,87,70,55,30.00,29.93,14,7,20,0.00
2013-3-21,29.8,23.6,17.3,25.4,18.8,11.8,92,82,65,29.96,29.92,13,6,18,0.00
2013-3-22,36.2,28.9,25.5,26.4,23.2,20.8,91,80,62,30.06,29.96,11,4,16,0.01
2013-3-23,41.7,30.9,21.0,31.8,24.2,18.6,93,77,59,30.12,30.04,9,2,13,0.00
2013-3-24,36.4,31.3,25.6,25.5,23.0,20.4,86,72,54,30.08,29.55,15,4,21,0.00
2013-3-25,34.7,32.9,31.4,32.9,30.6,25.1,96,91,70,29.87,29.48,9,4,16,0.33
2013-3-26,41.4,35.5,32.3,33.1,31.3,30.1,95,85,66,30.14,29.87,16,4,22,0.01
2013-3-27,44.1,37.7,32.8,33.0,29.7,26.0,94,74,50,30.21,30.12,14,7,22,0.05
2013-3-28,44.3,39.3,34.7,33.0,29.6,27.1,77,68,59,30.29,30.19,12,5,20,0.00
2013-3-29,50.1,41.8,33.3,31.9,27.8,20.0,83,59,36,30.31,30.24,11,4,19,0.00
2013-3-30,57.3,43.1,29.2,30.2,25.6,21.6,77,53,30,30.26,30.00,10,3,16,0.00
2013-3-31,53.4,48.6,43.9,45.1,34.2,23.3,83,59,42,30.00,29.68,13,5,20,0.01
2013-4-1,48.1,37.6,31.9,40.5,24.0,14.9,90,59,38,30.11,29.68,18,9,26,0.02
2013-4-2,40.2,33.0,26.2,24.8,17.5,11.1,87,54,35,30.25,30.11,14,6,20,0.00
2013-4-3,38.9,32.4,24.7,24.2,16.9,10.9,69,53,38,30.48,30.25,14,5,21,0.00
2013-4-4,56.6,38.5,24.7,23.3,16.8,12.5,63,44,25,30.44,29.99,8,3,12,0.00
2013-4-5,46.5,40.0,30.9,33.6,24.5,15.5,79,55,35,30.25,29.96,12,5,17,0.00
2013-4-6,56.2,42.8,26.0,21.0,18.1,10.2,73,41,25,30.32,29.92,12,4,20,0.00
2013-4-7,72.1,57.7,45.4,48.1,36.1,19.1,71,46,25,30.03,29.77,20,8,32,0.00
2013-4-8,71.3,57.2,39.3,56.0,44.7,34.0,83,64,47,30.05,29.81,18,6,29,0.05
2013-4-9,79.3,62.1,45.6,57.0,48.6,42.2,88,64,44,30.11,29.85,19,5,28,0.05
2013-4-10,68.5,50.7,40.5,63.7,46.4,39.4,97,86,69,29.98,29.78,17,3,25,1.31
2013-4-11,50.6,44.3,39.4,48.8,42.9,38.5,97,95,89,29.94,29.62,12,4,18,0.43
2013-4-12,49.0,43.2,40.3,48.5,39.8,33.4,98,88,71,29.87,29.47,19,6,30,0.31
2013-4-13,44.1,40.7,37.7,37.9,34.3,30.5,88,78,67,30.05,29.86,17,7,25,0.01
2013-4-14,56.9,45.3,32.9,39.0,34.2,29.1,87,66,48,30.17,29.98,10,3,14,0.00
2013-4-15,71.0,62.1,52.8,52.4,45.9,36.6,71,56,47,30.04,29.94,16,7,26,0.00
2013-4-16,67.7,57.3,48.7,59.9,51.8,47.6,96,82,71,30.20,29.93,14,5,21,0.16
2013-4-17,61.3,51.7,44.3,54.0,43.4,37.9,98,75,50,30.31,30.05,10,3,16,0.00
2013-4-18,84.5,70.7,52.3,63.4,57.3,43.6,89,65,35,30.06,29.66,17,8,31,0.00
2013-4-19,71.3,52.9,40.0,60.3,43.4,29.5,92,71,53,29.84,29.35,22,11,34,0.32
2013-4-20,44.4,38.4,32.8,32.1,28.1,24.4,88,67,51,30.45,29.84,17,8,28,0.05
2013-4-21,46.4,38.9,30.3,33.6,27.6,24.3,82,64,46,30.65,30.45,12,4,16,0.00
2013-4-22,65.6,50.7,36.1,40.9,33.1,25.6,71,52,33,30.51,30.22,9,4,12,0.00
2013-4-23,72.3,60.2,46.0,50.0,36.9,27.3,69,43,32,30.23,29.87,15,6,21,0.02
2013-4-24,61.6,46.7,36.3,53.8,42.9,34.7,95,87,57,30.18,29.72,14,6,20,0.61
2013-4-25,51.9,41.7,32.2,43.1,34.4,29.7,93,77,48,30.39,30.18,18,4,24,0.08
2013-4-26,58.9,45.1,30.8,38.1,32.3,27.5,94,65,31,30.52,30.39,7,2,12,0.00
2013-4-27,70.6,53.3,39.4,41.8,36.4,32.0,78,56,26,30.42,30.12,8,3,13,0.00
2013-4-28,57.9,55.1,48.5,55.5,48.3,37.0,94,79,56,30.12,29.87,10,4,17,0.18
2013-4-29,67.8,60.0,55.7,57.9,54.3,51.2,96,82,61,29.98,29.87,10,3,12,0.04
2013-4-30,76.5,64.9,53.9,58.2,53.9,51.7,94,70,44,30.11,29.98,11,4,16,0.00
2013-5-1,81.9,69.7,57.2,60.8,53.3,48.8,79,58,37,30.25,30.11,12,5,23,0.00
2013-5-2,80.0,69.9,59.1,51.3,42.8,34.9,49,38,29,30.30,30.14,9,4,16,0.00
2013-5-3,78.4,69.1,59.4,46.0,40.6,35.2,53,37,25,30.18,30.06,12,6,21,0.00
2013-5-4,73.5,64.9,55.1,45.0,39.4,33.7,54,40,25,30.15,30.05,12,6,18,0.00
2013-5-5,75.7,65.6,55.7,42.9,38.0,26.8,59,38,25,30.10,29.98,15,5,26,0.00
2013-5-6,74.5,64.8,53.2,53.8,43.7,27.2,63,47,25,30.05,29.95,9,4,13,0.00
2013-5-7,71.6,64.7,58.7,57.4,53.6,50.8,80,68,55,30.03,29.95,8,3,12,0.00
2013-5-8,72.7,63.8,54.0,58.8,54.2,50.8,92,72,52,29.99,29.93,10,2,13,0.03
2013-5-9,78.6,67.1,55.9,59.0,49.3,37.3,97,60,25,29.99,29.92,8,2,12,0.01
2013-5-10,73.6,64.6,51.2,66.0,57.7,39.9,96,80,36,29.93,29.75,13,4,22,0.87
2013-5-11,56.2,49.3,45.0,50.1,46.5,41.0,97,90,77,29.91,29.80,16,4,22,0.04
2013-5-12,52.3,44.2,38.4,40.9,33.8,29.6,88,68,45,30.10,29.91,13,7,21,0.03
2013-5-13,50.9,43.5,33.5,33.4,29.9,24.8,89,60,39,30.21,30.09,11,4,17,0.01
2013-5-14,68.5,54.6,38.9,44.8,36.5,26.6,72,51,37,30.18,29.79,12,5,20,0.00
2013-5-15,84.7,71.7,59.3,61.0,53.4,42.3,76,54,30,29.83,29.68,18,6,27,0.02
2013-5-16,80.3,69.0,54.1,53.6,48.3,40.7,84,51,25,29.96,29.75,10,2,14,0.00
2013-5-17,73.4,64.6,55.3,53.7,45.2,40.7,65,50,36,30.13,29.96,9,3,13,0.00
2013-5-18,79.8,68.0,57.0,57.9,50.5,39.6,64,54,30,30.13,30.01,10,3,14,0.00
2013-5-19,84.3,73.7,65.5,66.4,62.3,53.0,85,68,50,30.04,29.91,8,3,14,0.00
2013-5-20,84.6,76.3,66.7,72.5,67.7,63.1,90,75,63,29.96,29.83,9,4,20,0.00
2013-5-21,87.0,78.4,71.2,69.8,65.9,60.6,90,68,44,29.87,29.74,14,4,20,0.00
2013-5-22,85.0,76.0,65.8,66.1,62.9,60.7,94,65,48,29.80,29.66,18,4,27,0.36
2013-5-23,73.1,59.7,43.3,64.0,55.9,41.1,95,88,64,30.06,29.71,12,5,21,0.11
2013-5-24,47.5,43.5,37.2,41.4,36.9,34.5,93,78,64,30.36,30.06,14,6,20,0.04
2013-5-25,60.1,48.1,33.7,42.3,36.7,32.4,95,68,42,30.41,30.30,11,3,18,0.00
2013-5-26,64.1,52.2,36.4,43.3,37.3,31.9,93,61,32,30.36,30.25,9,2,13,0.00
2013-5-27,58.9,53.2,42.3,51.5,44.3,37.4,89,73,46,30.29,30.05,8,3,15,0.11
2013-5-28,83.4,69.3,54.5,69.2,61.0,51.4,95,77,54,30.05,29.88,11,4,21,0.28
2013-5-29,86.5,76.9,68.8,73.7,64.7,59.9,94,67,49,30.02,29.90,16,5,26,0.21
2013-5-30,88.2,78.2,67.7,69.8,64.2,60.2,86,64,40,30.12,30.00,9,3,17,0.01
2013-5-31,87.7,75.3,67.2,70.6,65.6,62.1,96,74,49,30.03,29.90,17,4,28,0.84
2013-6-1,82.5,73.9,66.5,70.8,67.5,63.8,96,82,63,29.93,29.72,13,4,28,0.51
2013-6-2,77.3,69.5,60.9,66.3,61.5,54.4,97,77,53,29.92,29.72,16,6,26,0.14
2013-6-3,61.7,57.0,50.0,54.6,46.5,38.9,83,69,44,30.10,29.92,12,4,17,0.00
2013-6-4,66.5,57.7,46.0,54.5,44.1,39.3,86,63,41,30.20,30.10,8,3,13,0.00
2013-6-5,72.9,62.6,50.3,55.6,48.8,43.8,83,62,43,30.17,29.94,11,3,17,0.00
2013-6-6,62.6,58.5,55.2,60.3,55.3,49.8,97,90,63,29.95,29.82,8,2,12,0.42
2013-6-7,59.8,56.7,55.2,56.9,55.2,54.4,98,95,88,29.91,29.84,7,3,10,0.03
2013-6-8,70.5,61.6,56.8,59.7,55.5,52.3,97,81,60,30.10,29.90,7,2,9,0.00
2013-6-9,80.4,69.8,56.4,64.0,58.3,51.6,85,68,48,30.14,29.95,9,3,14,0.00
2013-6-10,72.7,69.4,65.9,70.8,65.9,61.0,96,89,70,29.95,29.73,8,2,12,0.41
2013-6-11,79.2,70.4,64.6,66.6,64.4,62.9,97,82,62,29.89,29.75,12,4,17,0.01
2013-6-12,78.3,73.0,66.2,70.5,66.9,63.8,92,81,70,29.90,29.66,8,2,15,0.00
2013-6-13,73.4,66.8,61.4,68.1,61.4,55.6,96,84,62,29.86,29.46,16,6,27,0.49
2013-6-14,70.6,63.2,56.0,61.0,56.6,52.8,92,80,57,30.08,29.85,12,4,16,0.00
2013-6-15,79.9,66.0,50.9,62.0,55.0,49.4,95,71,41,30.13,29.97,12,2,20,0.00
2013-6-16,81.1,72.2,65.5,68.9,65.0,59.6,96,79,63,29.97,29.82,19,4,25,0.28
2013-6-17,81.6,71.9,64.5,69.8,64.5,59.3,98,79,55,29.93,29.85,8,2,15,0.01
2013-6-18,73.0,67.1,61.2,64.6,58.8,49.8,89,75,58,30.02,29.85,13,4,22,0.00
2013-6-19,72.3,63.7,53.0,55.0,50.6,46.1,93,65,43,30.17,30.02,12,3,15,0.00
2013-6-20,78.1,67.6,53.3,58.4,51.6,47.6,82,59,38,30.23,30.16,8,2,13,0.00
2013-6-21,85.5,74.1,61.0,64.0,58.1,50.5,76,58,43,30.24,30.11,7,2,14,0.00
2013-6-22,90.1,79.9,69.4,73.5,66.6,59.7,75,64,52,30.14,29.99,10,4,18,0.00
2013-6-23,90.6,81.3,71.7,71.7,67.5,63.6,84,65,42,30.09,29.98,11,3,18,0.00
2013-6-24,89.3,79.7,69.0,69.1,66.2,62.6,82,65,44,30.09,29.94,10,4,17,0.00
2013-6-25,89.5,77.3,67.1,73.1,68.8,63.7,95,76,54,29.98,29.81,16,5,25,1.96
2013-6-26,83.4,74.2,67.1,73.2,68.7,65.8,98,84,63,29.90,29.76,11,2,17,0.82
2013-6-27,81.0,72.2,68.2,71.5,68.8,67.0,98,90,70,29.76,29.62,8,2,10,0.32
2013-6-28,79.9,70.0,63.5,69.6,65.2,59.4,98,86,58,29.62,29.49,10,3,15,0.11
2013-6-29,75.0,68.1,62.9,67.8,64.2,60.8,98,88,74,29.69,29.52,7,2,11,0.17
2013-6-30,72.3,68.4,64.4,67.9,63.9,62.1,96,86,76,29.89,29.68,10,2,15,0.08
2013-7-1,72.4,68.3,64.2,68.1,65.2,62.5,96,90,83,29.99,29.85,7,2,13,0.29
2013-7-2,78.5,69.2,63.2,69.6,65.2,61.9,97,88,72,30.05,29.94,9,2,12,0.07
2013-7-3,84.8,74.5,65.0,74.2,69.1,64.1,98,84,61,30.11,30.03,9,2,14,0.00
2013-7-4,80.0,74.3,69.5,72.1,69.2,67.5,97,85,71,30.15,30.09,9,3,15,0.06
2013-7-5,79.0,73.2,69.6,72.1,69.4,67.7,97,88,76,30.13,30.06,10,2,15,0.21
2013-7-6,84.6,75.2,69.3,74.0,70.3,67.2,95,85,64,30.14,29.98,9,2,15,0.04
2013-7-7,80.1,73.6,68.4,70.8,67.7,64.8,95,83,61,30.07,29.97,10,4,15,0.19
2013-7-8,85.0,72.8,65.0,73.9,68.3,63.2,96,87,64,30.08,30.00,11,2,18,0.44
2013-7-9,87.8,75.8,69.4,77.1,72.2,68.1,98,90,67,30.03,29.90,19,4,28,0.97
2013-7-10,85.8,73.9,68.5,79.2,71.6,66.4,98,93,77,29.93,29.75,19,3,28,0.51
2013-7-11,75.0,70.7,66.0,68.4,61.4,57.0,93,73,57,30.02,29.89,11,3,16,0.00
2013-7-12,77.3,69.6,59.5,68.7,63.1,57.1,97,80,63,30.10,30.02,11,3,20,0.00
2013-7-13,83.3,74.2,61.2,70.9,65.8,59.2,94,76,60,30.20,30.10,10,3,15,0.00
2013-7-14,87.5,79.3,69.5,74.5,71.0,66.2,93,76,61,30.23,30.18,8,2,12,0.00
2013-7-15,90.3,82.2,74.7,75.9,72.9,70.6,88,74,58,30.29,30.22,6,2,9,0.00
2013-7-16,88.8,82.1,74.8,79.0,74.7,71.7,92,79,64,30.29,30.21,9,2,13,0.00
2013-7-17,92.2,83.6,75.4,76.6,74.0,69.7,94,75,50,30.27,30.13,9,2,13,0.00
2013-7-18,92.5,84.1,76.0,77.6,74.9,72.9,94,75,54,30.14,29.97,10,2,13,0.00
2013-7-19,92.7,83.9,77.8,77.0,74.4,72.5,85,74,53,29.98,29.77,14,4,23,0.04
2013-7-20,81.5,73.8,67.9,75.3,70.1,66.7,97,89,74,29.89,29.74,8,3,15,0.52
2013-7-21,82.5,74.8,68.2,72.8,68.8,62.8,97,83,66,29.96,29.88,8,2,12,0.00
2013-7-22,75.9,69.8,64.7,72.6,66.9,62.1,97,91,80,29.95,29.76,4,0,6,0.08
2013-7-23,84.5,72.6,64.1,75.0,67.8,62.1,98,86,60,29.79,29.63,17,3,26,0.70
2013-7-24,69.3,65.3,57.1,62.3,55.2,51.6,85,70,58,30.03,29.80,13,5,20,0.00
2013-7-25,75.7,65.3,53.9,57.9,52.9,49.3,93,67,46,30.10,30.02,11,3,17,0.00
2013-7-26,81.3,68.8,55.3,62.6,57.1,52.7,92,68,45,30.10,29.95,9,2,14,0.00
2013-7-27,72.1,67.5,64.8,66.6,63.2,59.2,96,86,71,29.95,29.78,8,3,17,0.19
2013-7-28,71.7,63.4,55.4,62.2,55.2,50.4,93,76,52,30.01,29.84,12,4,20,0.03
2013-7-29,70.1,63.4,56.0,61.1,56.4,52.7,92,79,60,30.19,30.01,11,3,20,0.00
2013-7-30,76.4,66.7,56.0,64.4,59.5,55.0,97,79,52,30.23,30.14,7,1,9,0.00
2013-7-31,78.5,70.8,63.0,67.0,63.3,59.4,90,78,64,30.15,29.90,9,2,14,0.00
2013-8-1,80.2,70.7,63.9,66.5,63.4,57.0,97,79,50,29.91,29.83,10,4,15,0.07
2013-8-2,74.3,66.7,59.9,66.0,60.9,56.9,96,83,60,29.97,29.86,11,3,18,0.17
2013-8-3,78.4,70.6,62.4,66.9,62.0,54.2,97,77,45,29.99,29.90,9,3,12,0.01
2013-8-4,72.3,65.9,58.5,61.7,57.4,51.7,97,75,57,30.13,29.98,13,3,18,0.46
2013-8-5,72.6,65.2,57.6,58.6,55.6,50.7,90,72,54,30.13,29.99,7,1,12,0.00
2013-8-6,80.9,70.5,61.7,64.2,60.0,56.6,86,71,50,30.01,29.93,8,2,12,0.00
2013-8-7,79.8,72.1,67.7,72.5,66.6,61.1,96,83,73,29.96,29.86,9,3,16,0.19
2013-8-8,81.8,74.2,70.6,75.4,71.0,66.2,97,90,80,29.94,29.89,8,2,14,0.00
2013-8-9,76.8,70.2,65.0,67.7,62.2,50.7,98,78,41,30.00,29.89,9,2,13,0.45
2013-8-10,77.3,69.3,61.4,65.3,59.6,55.1,92,72,58,30.11,30.00,8,2,13,0.00
2013-8-11,80.8,71.0,61.4,64.5,59.6,56.3,89,69,50,30.12,30.02,9,2,12,0.00
2013-8-12,80.8,72.1,64.0,69.3,64.7,60.3,91,78,63,30.05,29.81,8,2,13,0.00
2013-8-13,73.5,66.4,60.6,68.6,59.5,48.6,98,79,57,29.99,29.78,13,5,20,0.02
2013-8-14,70.0,62.5,56.1,55.8,52.7,48.2,88,71,56,30.17,29.98,10,4,17,0.00
2013-8-15,74.3,62.6,52.3,56.2,52.4,49.1,91,71,44,30.20,30.12,7,2,12,0.00
2013-8-16,76.5,65.1,53.6,59.5,54.4,51.3,93,71,46,30.19,30.13,8,1,12,0.00
2013-8-17,80.8,67.5,54.5,62.9,56.8,52.4,94,71,44,30.24,30.18,6,1,12,0.00
2013-8-18,78.7,67.8,56.4,65.6,60.6,54.3,94,79,55,30.21,30.11,7,1,10,0.00
2013-8-19,81.4,70.5,62.1,67.7,62.5,57.6,97,78,45,30.13,30.06,7,2,11,0.00
2013-8-20,85.3,73.6,64.5,66.5,61.9,58.6,85,68,47,30.16,30.08,7,2,12,0.00
2013-8-21,87.3,76.2,64.9,68.0,64.3,61.1,88,68,47,30.17,30.02,7,2,12,0.00
2013-8-22,84.4,75.0,69.1,73.3,68.9,64.8,96,82,64,30.06,29.96,9,3,13,0.24
2013-8-23,80.2,73.3,60.3,70.8,63.0,51.1,96,72,44,30.17,29.99,12,3,15,0.02
2013-8-24,79.9,68.3,55.6,60.2,55.7,53.1,93,67,42,30.31,30.17,9,2,14,0.00
2013-8-25,85.8,72.3,57.6,64.2,59.7,55.9,94,67,42,30.32,30.19,11,2,15,0.00
2013-8-26,86.1,77.2,69.0,69.4,64.3,59.2,75,65,52,30.21,29.98,11,4,20,0.00
2013-8-27,80.4,75.8,70.6,74.7,71.7,68.9,97,88,75,30.01,29.86,12,2,15,1.01
2013-8-28,77.9,74.7,71.6,74.4,72.2,69.5,97,92,86,29.95,29.79,11,3,18,0.20
2013-8-29,83.5,75.9,70.2,74.2,70.8,67.4,97,85,69,30.04,29.95,8,2,12,0.00
2013-8-30,87.4,76.7,65.0,72.2,68.5,63.2,97,78,55,29.99,29.78,11,2,18,0.00
2013-8-31,84.1,75.9,69.8,72.6,70.2,68.3,96,83,64,29.81,29.70,10,2,15,0.01
2013-9-1,84.0,74.7,70.4,75.1,71.0,68.0,96,89,66,29.81,29.72,6,1,9,0.62
2013-9-2,77.0,72.3,67.9,72.3,68.1,60.8,98,87,64,29.85,29.72,10,3,15,0.01
2013-9-3,68.1,64.0,58.0,61.1,56.4,53.9,89,76,65,30.03,29.85,10,4,15,0.00
2013-9-4,78.8,66.9,55.6,62.1,57.7,53.6,94,74,47,30.11,30.03,10,3,15,0.00
2013-9-5,69.7,66.4,58.1,64.6,55.7,44.3,92,69,48,30.24,30.05,12,4,16,0.00
2013-9-6,75.1,61.5,47.5,55.4,49.9,41.3,96,69,32,30.28,30.11,5,1,9,0.00
2013-9-7,80.3,69.2,57.1,68.8,58.9,49.2,87,71,53,30.11,29.91,8,2,12,0.00
2013-9-8,74.0,69.3,57.8,68.6,62.2,51.7,95,79,60,30.06,29.89,9,3,17,0.00
2013-9-9,80.5,68.4,53.2,71.7,62.2,49.7,91,81,70,30.06,29.95,7,2,12,0.00
2013-9-10,95.6,84.5,75.6,75.5,72.1,68.8,85,68,43,30.04,29.95,12,4,17,0.00
2013-9-11,93.4,82.9,76.4,74.7,71.8,68.9,84,70,46,30.07,29.92,7,3,15,0.00
2013-9-12,78.5,71.1,61.4,71.1,66.1,58.3,95,85,61,29.94,29.79,11,3,20,0.17
2013-9-13,61.6,58.6,54.5,59.4,52.1,44.0,93,79,67,30.08,29.87,12,6,18,0.11
2013-9-14,64.7,57.1,50.1,50.8,46.5,41.8,88,68,56,30.18,30.08,11,2,17,0.00
2013-9-15,69.0,59.9,50.8,58.2,51.6,46.4,92,75,53,30.17,30.05,7,2,12,0.05
2013-9-16,64.9,60.3,52.9,58.7,54.6,47.9,95,82,68,30.33,30.10,11,3,17,0.01
2013-9-17,70.0,57.6,43.7,49.9,45.8,40.2,94,68,35,30.41,30.25,7,2,12,0.00
2013-9-18,75.2,63.2,53.3,60.6,53.6,44.8,89,71,54,30.25,30.06,8,2,12,0.00
2013-9-19,78.9,69.0,60.9,68.3,64.5,58.8,95,86,68,30.10,29.96,8,3,12,0.00
2013-9-20,84.4,74.1,66.5,72.8,68.7,64.6,96,84,66,29.99,29.74,12,4,24,0.63
2013-9-21,69.3,64.5,58.7,68.1,61.9,54.5,98,92,71,29.81,29.64,11,3,17,0.71
2013-9-22,60.9,56.7,54.8,55.6,48.2,44.8,83,73,64,30.05,29.81,11,4,18,0.01
2013-9-23,59.9,54.5,45.8,48.5,46.7,42.9,91,75,63,30.18,30.05,8,1,10,0.00
2013-9-24,65.2,53.5,41.2,54.3,47.2,39.6,96,80,58,30.16,30.00,9,2,13,0.00
2013-9-25,73.2,58.0,45.5,58.6,50.8,43.5,96,79,39,30.01,29.92,9,1,12,0.00
2013-9-26,70.5,59.2,46.8,54.7,49.6,45.2,96,72,47,30.13,29.97,11,2,15,0.00
2013-9-27,71.8,60.5,48.3,58.7,52.8,46.1,97,77,53,30.22,30.12,9,2,15,0.00
2013-9-28,77.0,65.0,54.8,59.2,55.2,51.8,91,73,47,30.21,30.08,8,2,16,0.00
2013-9-29,73.3,64.9,57.1,62.2,58.2,53.1,91,79,64,30.08,29.97,10,3,17,0.01
2013-9-30,68.4,63.8,60.7,63.2,61.0,59.0,95,91,81,30.00,29.94,6,2,10,0.01
2013-10-1,78.1,67.1,58.5,65.5,60.5,57.4,97,81,57,30.06,29.96,9,2,15,0.01
2013-10-2,77.6,68.6,62.3,68.3,62.9,59.5,93,82,71,30.07,29.99,7,2,12,0.00
2013-10-3,80.5,70.6,62.3,71.2,64.4,56.6,93,81,66,30.06,29.96,10,3,15,0.00
2013-10-4,79.7,71.8,67.9,70.5,66.9,65.2,93,85,65,30.03,29.98,8,2,12,0.00
2013-10-5,75.7,70.2,66.8,71.0,67.6,64.8,96,92,75,30.04,29.91,7,2,10,0.68
2013-10-6,79.3,71.1,57.2,70.4,66.7,55.5,96,87,67,29.91,29.65,15,4,25,0.77
2013-10-7,60.5,54.1,46.7,55.8,47.9,44.1,97,81,59,30.14,29.72,12,5,20,0.50
2013-10-8,66.2,55.8,45.4,52.1,47.9,43.3,96,77,46,30.31,30.14,8,1,12,0.00
2013-10-9,69.0,56.4,43.9,49.0,45.5,41.8,94,70,38,30.33,30.23,7,1,12,0.00
2013-10-10,63.6,54.4,43.2,52.3,45.8,40.5,91,74,47,30.24,30.12,6,1,8,0.00
2013-10-11,70.8,57.0,44.1,58.4,50.4,42.6,97,80,52,30.15,30.06,7,1,10,0.00
2013-10-12,76.2,63.1,51.7,64.3,56.3,47.0,92,80,62,30.12,30.06,7,1,9,0.00
2013-10-13,66.8,63.3,55.1,63.7,58.3,51.8,91,84,69,30.29,30.11,9,2,13,0.00
2013-10-14,62.8,56.5,48.1,54.5,48.9,43.1,93,76,62,30.36,30.26,12,2,16,0.00
2013-10-15,63.8,55.6,43.1,60.8,52.7,40.8,98,90,84,30.26,29.93,9,2,12,0.04
2013-10-16,68.0,61.3,49.3,64.5,58.3,46.3,97,90,74,29.92,29.79,9,3,16,0.59
2013-10-17,58.6,50.0,44.0,50.5,46.8,42.5,96,89,66,29.92,29.78,11,3,17,0.15
2013-10-18,63.5,53.5,43.9,48.8,45.4,41.6,92,75,53,29.98,29.88,14,4,20,0.00
2013-10-19,53.8,46.3,41.9,45.2,43.1,39.6,95,89,72,29.92,29.76,9,3,15,0.26
2013-10-20,59.7,49.4,40.2,44.5,40.6,37.2,91,73,50,29.98,29.91,12,4,20,0.00
2013-10-21,65.0,54.9,49.0,51.7,44.3,40.5,95,69,46,29.97,29.82,13,5,18,0.17
2013-10-22,50.0,43.9,36.5,47.4,34.7,31.3,93,71,51,29.98,29.86,12,4,20,0.01
2013-10-23,45.9,40.7,37.7,41.6,35.5,32.3,96,82,63,29.95,29.80,13,3,21,0.16
2013-10-24,46.0,38.4,33.7,35.9,33.3,30.8,94,82,61,30.18,29.94,15,5,22,0.16
2013-10-25,47.5,39.4,33.5,38.3,33.4,29.1,96,81,52,30.36,30.17,12,4,16,0.02
2013-10-26,47.0,41.7,37.0,39.9,31.7,27.6,95,68,56,30.23,29.87,16,5,26,0.07
2013-10-27,51.6,42.3,34.8,39.3,36.1,33.4,96,80,53,30.12,30.00,11,2,15,0.00
2013-10-28,54.9,44.7,36.4,44.8,38.6,32.8,88,79,64,30.36,30.09,7,2,10,0.00
2013-10-29,57.0,43.9,32.7,42.9,37.9,31.2,96,81,53,30.42,30.26,7,1,10,0.00
2013-10-30,66.1,53.6,40.2,54.2,46.1,37.8,91,77,57,30.26,30.02,8,2,14,0.00
2013-10-31,66.0,61.7,58.7,59.9,58.6,54.2,95,90,75,30.03,29.26,15,6,29,0.28
2013-11-1,61.3,53.4,47.4,59.2,47.9,43.0,95,82,72,29.70,29.20,17,6,29,0.29
2013-11-2,50.1,46.5,44.4,45.5,43.4,39.3,94,89,82,30.04,29.67,14,4,22,0.18
2013-11-3,47.1,41.7,33.7,39.6,34.4,26.7,85,75,64,30.49,30.04,9,3,13,0.01
2013-11-4,48.5,39.4,31.9,30.2,26.5,24.8,77,61,41,30.54,30.39,10,4,18,0.00
2013-11-5,60.5,51.9,43.9,45.9,39.5,30.1,69,62,55,30.43,30.26,7,3,12,0.00
2013-11-6,66.2,56.6,48.1,57.6,46.7,36.1,95,71,54,30.26,29.89,15,6,25,0.23
2013-11-7,48.0,42.8,39.6,46.1,36.3,29.3,96,78,61,30.13,29.96,17,6,26,0.32
2013-11-8,43.2,37.3,33.5,34.6,31.3,27.6,95,80,57,30.32,30.11,12,3,18,0.09
2013-11-9,58.8,47.6,33.5,42.3,35.0,27.9,80,63,45,30.27,29.89,20,7,32,0.00
2013-11-10,52.4,44.8,36.3,41.5,33.7,28.9,80,65,56,30.30,29.94,20,7,28,0.00
2013-11-11,48.2,39.7,30.5,39.9,33.1,29.2,95,78,53,30.29,30.05,11,5,23,0.22
2013-11-12,35.1,31.8,29.5,29.2,25.2,19.8,95,77,60,30.53,30.25,15,6,21,0.01
2013-11-13,38.2,32.3,26.6,25.4,21.7,19.5,79,65,51,30.58,30.30,14,6,21,0.02
2013-11-14,51.9,40.5,30.0,26.8,22.6,20.1,70,50,31,30.30,30.10,14,6,24,0.19
2013-11-15,52.2,46.6,39.5,32.9,26.4,22.2,60,45,35,30.15,30.08,12,4,20,0.00
2013-11-16,61.5,51.9,42.7,52.0,44.7,32.9,83,77,61,30.18,29.90,12,5,22,0.00
2013-11-17,63.6,59.2,52.2,58.2,54.2,41.6,93,84,67,29.91,29.39,28,10,40,0.30
2013-11-18,52.2,43.6,36.3,42.4,35.0,26.7,80,72,66,30.13,29.57,19,11,32,0.00
2013-11-19,39.7,35.6,27.6,28.5,26.3,23.9,86,69,61,30.44,30.13,11,4,17,0.00
2013-11-20,47.8,36.7,23.5,27.0,20.8,16.7,92,57,29,30.48,30.32,13,3,18,0.00
2013-11-21,46.2,42.9,40.0,42.8,33.7,18.0,90,72,38,30.38,30.22,10,4,16,0.06
2013-11-22,49.3,44.4,36.1,48.5,42.3,29.6,97,92,77,30.35,30.14,19,5,25,0.15
2013-11-23,36.1,30.2,21.0,29.6,21.6,7.0,87,71,48,30.47,30.26,20,9,27,0.01
2013-11-24,25.5,22.2,20.5,15.1,11.1,7.8,76,62,53,30.61,30.46,21,9,28,0.00
2013-11-25,34.8,27.3,19.7,22.5,15.8,13.3,80,63,47,30.52,30.21,13,5,23,0.00
2013-11-26,35.7,33.3,31.5,31.3,28.6,20.8,96,83,57,30.22,29.89,7,2,12,0.07
2013-11-27,34.2,28.6,25.2,32.0,22.6,15.7,96,78,65,30.20,29.85,19,9,26,0.06
2013-11-28,29.8,25.7,19.9,22.5,18.2,13.8,87,73,64,30.47,30.20,8,4,14,0.00
2013-11-29,34.2,28.5,23.8,25.6,22.3,18.9,85,77,65,30.69,30.47,5,1,7,0.00
2013-11-30,42.0,33.7,27.8,29.3,25.0,20.2,76,71,57,30.63,30.18,10,4,18,0.00
2013-12-1,43.0,38.5,33.8,32.8,30.9,29.1,87,74,66,30.18,29.97,7,2,12,0.00
2013-12-2,42.8,37.1,32.9,35.1,32.9,29.9,91,85,73,29.98,29.88,7,1,12,0.00
2013-12-3,51.7,41.5,32.9,42.3,36.1,29.7,90,81,69,29.92,29.85,7,2,10,0.00
2013-12-4,59.2,52.8,45.6,51.4,46.0,40.8,85,78,72,29.94,29.73,12,4,20,0.00
2013-12-5,62.4,51.1,33.2,56.7,44.9,30.3,93,80,67,30.12,29.71,16,7,23,0.05
2013-12-6,34.2,31.2,27.4,31.4,28.3,25.4,95,89,77,30.37,30.09,9,4,13,0.13
2013-12-7,27.5,24.4,21.4,25.5,18.5,15.6,92,78,66,30.63,30.36,14,5,20,0.00
2013-12-8,29.7,25.1,20.0,27.4,18.7,15.0,91,77,64,30.62,30.04,10,4,15,0.00
2013-12-9,34.2,31.2,25.4,32.6,27.0,19.2,95,85,74,30.17,29.95,18,7,25,0.00
2013-12-10,27.8,23.3,20.5,19.2,13.9,7.1,78,68,42,30.29,30.02,23,7,33,0.00
2013-12-11,25.6,21.0,17.2,21.4,16.0,10.9,92,81,69,30.47,30.27,14,6,21,0.05
2013-12-12,20.1,15.8,8.6,11.0,5.8,2.0,83,65,45,30.50,30.28,17,7,23,0.00
2013-12-13,31.2,24.7,18.1,20.7,14.9,5.8,77,66,58,30.30,30.23,14,4,20,0.00
2013-12-14,33.0,29.5,25.3,31.8,27.3,20.0,96,91,75,30.28,29.69,9,2,12,0.35
2013-12-15,32.9,22.5,14.0,31.9,19.7,10.1,96,89,82,30.09,29.70,17,7,25,0.03
2013-12-16,23.2,17.6,10.9,20.8,12.7,7.5,91,81,69,30.23,30.03,11,3,16,0.03
2013-12-17,28.7,25.6,21.2,26.2,22.6,18.7,94,88,79,30.08,29.95,13,5,18,0.05
2013-12-18,30.8,26.6,24.0,23.9,21.4,17.8,89,81,66,30.19,30.01,15,7,23,0.00
2013-12-19,47.4,40.0,30.8,37.3,30.5,20.7,77,69,60,30.05,29.95,10,5,20,0.00
2013-12-20,55.6,48.2,43.9,53.8,44.4,36.0,95,87,67,29.96,29.78,11,6,18,0.16
2013-12-21,57.8,46.5,37.0,55.5,45.1,36.0,98,95,89,29.83,29.46,12,4,21,1.84
2013-12-22,62.1,49.8,36.4,57.4,46.1,35.6,99,88,63,29.99,29.44,23,8,35,0.34
2013-12-23,39.6,33.5,27.9,38.3,28.4,19.9,95,82,68,30.33,29.98,14,6,20,0.01
2013-12-24,27.8,19.7,15.9,22.3,14.6,10.8,88,81,67,30.58,30.30,14,6,20,0.00
2013-12-25,27.9,21.8,14.0,22.9,15.2,11.1,89,76,61,30.55,30.20,12,4,18,0.00
2013-12-26,31.5,28.5,23.8,28.0,22.4,17.8,91,78,67,30.36,30.11,16,5,25,0.00
2013-12-27,42.4,36.2,27.4,31.9,27.9,20.8,77,71,65,30.37,30.19,11,5,16,0.02
2013-12-28,54.7,45.1,39.1,36.2,32.8,30.0,73,62,44,30.18,29.98,13,6,20,0.00
2013-12-29,44.0,40.2,27.4,39.1,32.6,25.5,93,76,54,29.98,29.70,11,5,17,0.03
2013-12-30,27.3,22.2,20.0,25.5,18.9,15.5,93,87,74,30.28,29.96,11,4,20,0.04
2013-12-31,23.0,19.7,17.4,19.7,14.9,10.4,90,82,68,30.37,30.10,15,6,25,0.03
2014-1-1,26.7,22.1,19.3,22.2,19.2,16.8,92,88,81,30.38,30.16,8,2,10,0.08
2014-1-2,22.8,19.3,13.0,20.4,17.1,10.0,93,91,89,30.17,29.90,15,7,28,0.56